Location: *
(43.6428°N, 11.5461°E)
Time: 09:42:41
(UTC+00:00)

STARLINK-60 - Pass Details

Date: 21 October 2019
Orbit: 419 x 429 km, 53.0° (Epoch: 11 November)

Event Time Altitude Azimuth Distance (km) Brightness Sun altitude
Rises 18:14:14 0° 303° (WNW) 2,388 7.9 -21.1°
Reaches altitude 10° 18:16:21 10° 300° (WNW) 1,522 6.8 -21.5°
Enters shadow 18:19:30 60° 244° (WSW) 494 3.5 -22.0°
